Simultaneous Nadir Overpasses (SNOs) Predictions

Prediction of SNOs between LANDSAT-8 and METOP-B Satellite Orbit:

Table of predicted SNOs for the next 14.0 days since TLE Epoch: 1/15/2022
Index Date (LANDSAT-8) Time (LANDSAT-8) Lat,Lon (LANDSAT-8) SZA (LANDSAT-8 ) Date (METOP-B) Time (METOP-B) Lat,Lon (METOP-B) SZA (METOP-B ) Distance(km) Time Diff (sec)
1 01/17/2022 09:41:24 -81.15,-105.17 76.43 01/17/2022 09:41:00 -81.15,-105.11 76.43 1.05 24
2 01/17/2022 10:30:50 81.16, 62.57 103.58 01/17/2022 10:31:40 81.16, 62.53 103.60 0.86 50
3 01/20/2022 05:15:38 -81.16, -38.61 77.01 01/20/2022 05:15:20 -81.16, -38.44 77.00 2.77 18
4 01/20/2022 06:05:04 81.16, 129.11 103.00 01/20/2022 06:06:00 81.17, 129.15 103.03 0.86 56
5 01/23/2022 00:49:52 -81.14, 27.52 77.70 01/23/2022 00:49:41 -81.14, 27.44 77.71 1.50 11
6 01/23/2022 01:39:17 81.16,-164.42 102.35 01/23/2022 01:40:19 81.17,-164.25 102.40 2.92 62
7 01/25/2022 20:24:05 -81.16, 94.31 78.35 01/25/2022 20:24:00 -81.16, 94.42 78.34 1.87 5
8 01/25/2022 21:13:31 81.16, -98.01 101.65 01/25/2022 21:14:40 81.17, -98.07 101.68 1.04 69
9 01/28/2022 15:08:53 81.13, -7.34 100.87 01/28/2022 15:07:41 81.14, -7.15 100.86 3.29 72
10 01/28/2022 15:58:19 -81.15, 160.67 79.10 01/28/2022 15:58:21 -81.15, 160.62 79.10 0.78 2



Historial Predications of SNOs between LANDSAT-8 and METOP-B
